Location: Fort Worth, Tx
(32.7431°N, 97.3695°W)
Time: 17:22:47
(UTC-04:00)

A-11 Canister half - Pass Details

Date: 24 February 2024
Orbit: 1525 x 1683 km, 47.3° (Epoch: 21 April)

Event Time Altitude Azimuth Distance (km) Brightness Sun altitude
Rises 21:27:57 0° 228° (SW) 4,806 12.2 -27.1°
Reaches altitude 10° 21:31:05 10° 227° (SW) 3,801 11.5 -27.8°
Maximum altitude 21:40:44 85° 141° (SE) 1,566 8.8 -29.8°
Enters shadow 21:43:34 52° 57° (ENE) 1,866 9.1 -30.4°
